St. James, MN

8:46 AM CDT on April 20, 2018 (GMT -0500)
Saint James Municipal

Weather History for KJYG - January, 2013

Change the Weather History Date:

Saturday, January 12, 2013

  Actual Average Record
Temperature  
Mean Temperature 22 °F -  
Max Temperature 35 °F 22 °F 55 °F (1987)
Min Temperature 8 °F 3 °F -26 °F (1974)
Degree Days  
Heating Degree Days 44    
Moisture  
Dew Point 6 °F    
Average Humidity 62    
Maximum Humidity 86    
Minimum Humidity 49    
Precipitation  
Precipitation 0.00 in - - ()
Sea Level Pressure  
Sea Level Pressure 29.90 in    
Wind  
Wind Speed 19 mph (West)    
Max Wind Speed 28 mph    
Max Gust Speed 34 mph    
Visibility 9 miles    
Events Snow    
Averages and records for this station are not official NWS values.
T = Trace of Precipitation, MM = Missing Value Source: NWS Daily Summary

Daily Weather History Graph

Daily Weather History Graph

Search for Another Location

Airport or City:

Astronomy

Jan. 12, 2013 Rise Set
Actual Time 7:50 AM CST 5:02 PM CST
Civil Twilight 7:18 AM CST 5:35 PM CST
Nautical Twilight 6:42 AM CST 6:10 PM CST
Astronomical Twilight 6:08 AM CST 6:45 PM CST
Moon 8:06 AM CST (1/12) 6:37 PM CST (1/12)
Length of Visible Light 10h 16m
Length of Day
9h 11m
New Moon, 1% of the Moon is Illuminated
Jan 12
New Moon
Jan 18
First Quarter
Jan 26
Full
Feb 3
Last Quarter
Feb 10
New

Hourly Weather History & Observations

Time (CST) Temp. Windchill Dew Point Humidity Pressure Visibility Wind Dir Wind Speed Gust Speed Precip Events Conditions
12:15 AM 35.6 °F 24.8 °F 28.4 °F 75% 29.48 in 10.0 mi WSW 19.6 mph 25.3 mph N/A   Overcast
12:35 AM 33.8 °F 23.9 °F 28.4 °F 81% 29.48 in 10.0 mi WSW 15.0 mph - N/A   Overcast
12:55 AM 30.2 °F 17.4 °F 26.6 °F 86% 29.51 in 7.0 mi West 20.7 mph - N/A   Overcast
1:15 AM 30.2 °F 18.5 °F 24.8 °F 80% 29.53 in 5.0 mi West 17.3 mph - N/A Snow Light Snow
1:35 AM 30.2 °F 18.5 °F 24.8 °F 80% 29.56 in 7.0 mi West 17.3 mph - N/A   Overcast
1:55 AM 30.2 °F 19.3 °F 24.8 °F 80% 29.56 in 7.0 mi West 15.0 mph 19.6 mph N/A   Overcast
2:15 AM 28.4 °F 14.4 °F 23.0 °F 80% 29.58 in 10.0 mi WSW 23.0 mph 27.6 mph N/A   Overcast
2:35 AM 28.4 °F 14.1 °F 19.4 °F 69% 29.60 in 10.0 mi WSW 24.2 mph 28.8 mph N/A   Overcast
2:55 AM 26.6 °F 10.8 °F 17.6 °F 69% 29.63 in 10.0 mi WSW 27.6 mph 31.1 mph N/A   Overcast
3:15 AM 24.8 °F 9.3 °F 15.8 °F 69% 29.65 in 10.0 mi WSW 24.2 mph 34.5 mph N/A   Overcast
3:35 AM 24.8 °F 10.0 °F 12.2 °F 59% 29.67 in 10.0 mi WSW 21.9 mph 29.9 mph N/A   Overcast
3:55 AM 23.0 °F 6.3 °F 12.2 °F 63% 29.67 in 10.0 mi WSW 26.5 mph 33.4 mph N/A   Overcast
4:15 AM 21.2 °F 3.9 °F 10.4 °F 63% 29.70 in 10.0 mi West 26.5 mph 34.5 mph N/A   Overcast
4:35 AM 21.2 °F 5.2 °F 10.4 °F 63% 29.71 in 10.0 mi WSW 21.9 mph 32.2 mph N/A   Overcast
4:55 AM 19.4 °F 2.8 °F 8.6 °F 63% 29.72 in 10.0 mi WSW 21.9 mph 31.1 mph N/A Snow Light Snow
5:15 AM 19.4 °F 2.5 °F 8.6 °F 63% 29.74 in 10.0 mi West 23.0 mph - N/A   Overcast
5:35 AM 19.4 °F 2.5 °F 10.4 °F 68% 29.76 in 2.5 mi WSW 23.0 mph 31.1 mph N/A Snow Light Snow
5:55 AM 17.6 °F 0.9 °F 8.6 °F 68% 29.77 in 3.0 mi WSW 20.7 mph 31.1 mph N/A Snow Light Snow
6:15 AM 17.6 °F -0.3 °F 5.0 °F 58% 29.78 in 10.0 mi West 24.2 mph 33.4 mph N/A   Mostly Cloudy
6:35 AM 17.6 °F 0.5 °F 5.0 °F 58% 29.81 in 10.0 mi West 21.9 mph - N/A   Clear
6:55 AM 15.8 °F -1.9 °F 3.2 °F 58% 29.82 in 10.0 mi West 21.9 mph 28.8 mph N/A   Clear
7:15 AM 15.8 °F -1.1 °F 3.2 °F 58% 29.84 in 10.0 mi West 19.6 mph 25.3 mph N/A   Mostly Cloudy
7:35 AM 15.8 °F -1.5 °F 3.2 °F 58% 29.85 in 10.0 mi West 20.7 mph 26.5 mph N/A   Mostly Cloudy
7:55 AM 15.8 °F -1.1 °F 3.2 °F 58% 29.86 in 10.0 mi WSW 19.6 mph 24.2 mph N/A   Mostly Cloudy
8:15 AM 15.8 °F -1.5 °F 3.2 °F 58% 29.87 in 10.0 mi West 20.7 mph 26.5 mph N/A   Scattered Clouds
8:35 AM 15.8 °F 0.3 °F 3.2 °F 58% 29.88 in 10.0 mi West 16.1 mph - N/A   Mostly Cloudy
8:55 AM 15.8 °F -0.2 °F 3.2 °F 58% 29.90 in 10.0 mi West 17.3 mph - N/A   Mostly Cloudy
9:15 AM 15.8 °F -0.6 °F 3.2 °F 58% 29.91 in 10.0 mi West 18.4 mph 25.3 mph N/A   Mostly Cloudy
9:35 AM 15.8 °F -1.9 °F 1.4 °F 53% 29.92 in 10.0 mi West 21.9 mph - N/A   Mostly Cloudy
9:55 AM 15.8 °F -2.3 °F 1.4 °F 53% 29.93 in 10.0 mi West 23.0 mph 27.6 mph N/A   Scattered Clouds
10:15 AM 15.8 °F -1.5 °F 1.4 °F 53% 29.94 in 10.0 mi West 20.7 mph 25.3 mph N/A   Clear
10:35 AM 15.8 °F -0.2 °F 3.2 °F 58% 29.95 in 10.0 mi West 17.3 mph - N/A   Mostly Cloudy
10:55 AM 15.8 °F -1.1 °F 1.4 °F 53% 29.96 in 10.0 mi West 19.6 mph 26.5 mph N/A   Mostly Cloudy
11:15 AM 17.6 °F 2.7 °F 1.4 °F 49% 29.97 in 10.0 mi West 16.1 mph 24.2 mph N/A   Mostly Cloudy
11:35 AM 15.8 °F -0.6 °F 1.4 °F 53% 29.97 in 10.0 mi West 18.4 mph 23.0 mph N/A   Overcast
11:55 AM 15.8 °F -0.2 °F 1.4 °F 53% 29.97 in 10.0 mi West 17.3 mph 25.3 mph N/A   Mostly Cloudy
12:15 PM 15.8 °F -1.1 °F 1.4 °F 53% 29.97 in 10.0 mi West 19.6 mph 24.2 mph N/A   Overcast
12:35 PM 17.6 °F 2.7 °F 1.4 °F 49% 29.98 in 10.0 mi West 16.1 mph 25.3 mph N/A   Mostly Cloudy
12:55 PM 15.8 °F -0.6 °F 3.2 °F 58% 29.98 in 7.0 mi WSW 18.4 mph 24.2 mph N/A   Overcast
1:15 PM 15.8 °F 0.3 °F 1.4 °F 53% 29.99 in 10.0 mi West 16.1 mph 23.0 mph N/A   Scattered Clouds
1:35 PM 15.8 °F 0.3 °F 3.2 °F 58% 29.98 in 7.0 mi West 16.1 mph - N/A   Mostly Cloudy
1:55 PM 15.8 °F 0.9 °F 3.2 °F 58% 29.99 in 7.0 mi West 15.0 mph 23.0 mph N/A   Overcast
2:15 PM 15.8 °F 0.9 °F 1.4 °F 53% 29.99 in 10.0 mi West 15.0 mph 19.6 mph N/A   Mostly Cloudy
2:35 PM 15.8 °F -0.2 °F 5.0 °F 62% 29.99 in 7.0 mi WNW 17.3 mph 24.2 mph N/A   Mostly Cloudy
2:55 PM 15.8 °F 0.3 °F 3.2 °F 58% 30.01 in 10.0 mi West 16.1 mph 20.7 mph N/A   Mostly Cloudy
3:15 PM 15.8 °F 0.3 °F 1.4 °F 53% 30.00 in 10.0 mi West 16.1 mph 21.9 mph N/A   Scattered Clouds
3:35 PM 14.0 °F -2.0 °F 1.4 °F 57% 30.00 in 10.0 mi WNW 16.1 mph - N/A   Scattered Clouds
3:55 PM 14.0 °F -0.2 °F 3.2 °F 62% 30.02 in 10.0 mi WNW 12.7 mph 18.4 mph N/A   Mostly Cloudy
4:15 PM 12.2 °F -2.5 °F 1.4 °F 62% 30.03 in 7.0 mi WNW 12.7 mph - N/A   Mostly Cloudy
4:35 PM 12.2 °F -4.3 °F 1.4 °F 62% 30.04 in 10.0 mi WNW 16.1 mph - N/A   Mostly Cloudy
4:55 PM 12.2 °F -1.0 °F 1.4 °F 62% 30.05 in 10.0 mi WNW 10.4 mph - N/A   Scattered Clouds
5:15 PM 12.2 °F -2.5 °F 1.4 °F 62% 30.05 in 10.0 mi WNW 12.7 mph - N/A   Scattered Clouds
5:35 PM 12.2 °F -1.8 °F 1.4 °F 62% 30.05 in 10.0 mi WNW 11.5 mph - N/A   Clear
5:55 PM 12.2 °F -2.5 °F 3.2 °F 67% 30.03 in 10.0 mi WNW 12.7 mph - N/A   Clear
6:15 PM 12.2 °F -1.0 °F 1.4 °F 62% 30.05 in 10.0 mi WNW 10.4 mph - N/A   Clear
6:35 PM 12.2 °F -1.0 °F 1.4 °F 62% 30.05 in 10.0 mi WNW 10.4 mph - N/A   Clear
7:15 PM 12.2 °F -1.8 °F 1.4 °F 62% 30.06 in 10.0 mi WNW 11.5 mph - N/A   Clear
7:55 PM 10.4 °F -6.0 °F 1.4 °F 67% 30.07 in 10.0 mi WNW 15.0 mph - N/A   Scattered Clouds
8:15 PM 10.4 °F -4.8 °F 1.4 °F 67% 30.08 in 10.0 mi WNW 12.7 mph - N/A   Clear
8:35 PM 10.4 °F -4.1 °F -0.4 °F 62% 30.10 in 10.0 mi WNW 11.5 mph 16.1 mph N/A   Mostly Cloudy
8:55 PM 10.4 °F -3.3 °F 1.4 °F 67% 30.09 in 7.0 mi WNW 10.4 mph - N/A Snow Light Snow
9:15 PM 10.4 °F -4.1 °F -0.4 °F 62% 30.09 in 10.0 mi WNW 11.5 mph - N/A   Scattered Clouds
9:35 PM 10.4 °F -5.4 °F -0.4 °F 62% 30.08 in 10.0 mi WNW 13.8 mph - N/A   Clear
9:55 PM 8.6 °F -8.3 °F -2.2 °F 62% 30.09 in 10.0 mi WNW 15.0 mph 18.4 mph N/A   Clear
10:35 PM 8.6 °F -8.9 °F -0.4 °F 67% 30.08 in 7.0 mi NW 16.1 mph - N/A Snow Light Snow
10:54 PM 8.6 °F -6.3 °F -2.2 °F 62% 30.08 in 10.0 mi WNW 11.5 mph - N/A   Scattered Clouds
11:15 PM 8.6 °F -4.7 °F -0.4 °F 67% 30.09 in 10.0 mi WNW 9.2 mph - N/A   Clear
11:35 PM 8.6 °F -5.5 °F -0.4 °F 67% 30.09 in 7.0 mi WNW 10.4 mph - N/A   Mostly Cloudy
11:54 PM 8.6 °F -7.0 °F -2.2 °F 62% 30.08 in 10.0 mi WNW 12.7 mph 17.3 mph N/A   Mostly Cloudy